User: anonymous   Login
Location: B
(0.0000°N, 0.0000°E)
Time: 11:13:43
(UTC+01:00)
Language:

Cosmos 1025 Rocket - Orbit

View from above orbital plane
View from above orbital plane
View from above satellite
View from above satellite

Ground track
Ground track

The orbit data is extracted from the following two-line orbital elements,

1 10974U 78067B   15024.85521576  .00000275  00000-0  28034-4 0  5227
2 10974 082.4824 277.0841 0017294 005.4000 048.5203 14.86841472977631
Epoch (UTC): 24 January 2015 20:31:30
Eccentricity: 0.0017294
inclination: 82.4824°
perigee height: 596 km
apogee height: 620 km
right ascension of ascending node: 277.0841°
argument of perigee: 5.4000°
revolutions per day: 14.86841472
mean anomaly at epoch: 48.5203°
orbit number at epoch: 97763

The dashed part of the orbit path shows where the satellite is in the earth's shadow,  

DLR